Tracking 19490 objects as of 23-Jan-2019
HD Live streaming from Space Station
objects crossing your sky now

KESTREL EYE 2M

Track KESTREL EYE 2M now!
10-day predictions


NORAD ID: 42982
Int'l Code: 1998-067NE
Perigee: 391.2 km
Apogee: 396.3 km
Inclination: 51.6 °
Period: 92.3 minutes
Semi major axis: 6764 km
RCS: Unknown
Launch date: November 20, 1998
Source: United States (US)
Launch site: TYURATAM MISSILE AND SPACE COMPLEX (TTMTR)
aabbcc
Your satellite tracking list
Your tracking list is empty




NASA's NSSDC Master Catalog

Two Line Element Set (TLE):
1 42982U 98067NE  19023.17952125  .00006319  00000-0  81780-4 0  9999
2 42982  51.6394 350.8188 0003751 320.0789  39.9928 15.60354989 71023
Source of the keplerian elements: AFSPC